FENGYUN 1C DEB

Satellite information

Favourite Embed

Satellite Type and Status

DEBRISIN ORBIT

Key statistics

Satellite FENGYUN 1C DEB at a glance.

Uptime

9719

Days in orbit

Revolutions

≈ 13.6

Per day

Orbit

SSO

Sun Synchronous Orbit

Inclination

98.7

Latest

Satellite identification and parameters

Extended collection of information and parameters for FENGYUN 1C DEB.

Object identification

Identified? True

Debris? True

Object name: FENGYUN 1C DEB

International designator: 1999-025GB

Object number (NORAD): 29881

Object ID (CCSDS): 29881

Country: PEOPLES REPUBLIC OF CHINA (PRC)

Current information (Y/N): Y

RCS size: SMALL

Orbital parameters

Period: 105.911 minutes

Inclination: 98.7227 deg

SMA: 7415.159 km

Apoapsis: 1254.129 km

Periapsis: 819.92 km

RAAN: 322.6335 deg

Eccentricy: 0.02927848

Argument of periapsis: 60.8863 deg

Mean anomaly: 2.9199 deg

Mean motion: 13.59634056 rev/day

Mean motion (dot): 0.00002079 rev/day2

B* drag term: 0.0021489483 1/REarth

Two-line elements (TLE)

Creation date: Dec. 17, 2025, 2:25 a.m.

Reference frame: TEME

Reference center: EARTH

Epoch: Dec. 16, 2025, 9:39 p.m. UTC

TLE line 0: 0 FENGYUN 1C DEB

TLE line 1: 1 29881U 99025GB 25350.90236874 .00002079 00000-0 21489-2 0 9991

TLE line 2: 2 29881 98.7227 322.6335 0292785 60.8863 2.9199 13.59634056932919

Live tracking on map

Real-time ground track for satellite FENGYUN 1C DEB.

In-orbit conjunctions

A list of the most updated potential collisions computed for object FENGYUN 1C DEB.

Target Orbit TCA Probability of collision Miss distance Type
CZ-6A DEB LEO 2025-07-31 14:26:23 0.0001689315 908.0 (m) DEBRIS
CZ-6A DEB LEO 2025-01-12 23:28:43 0.0001521337 649.0 (m) DEBRIS

Associated space launch

Chinese polar orbiting meteorological satellite

FENGYUN 1C DEB was lifted into orbit during the mission ‘Long March 4B | Feng Yun 1C’, on board a Long March 4B space rocket.

The launch took place on May 10, 1999, 1:33 a.m. from Launch Complex 7.

For more information about the launch, click the button.

Launch to space Long March 4B | Feng Yun 1C
Long March 4B | Feng Yun 1C

Agency: N/A

Status: Launch Successful

Launch date: May 10, 1999, 1:33 a.m. UTC

Rocket: Long March 4B

Launch pad: Launch Complex 7

Location: Taiyuan Satellite Launch Center, People's Republic of China

...

Latest news about this satellite

There are no fresh news available about this satellite. Check back as we update our databases every day.


Newsletter sign-up

Weekly statistics, charts and insights to help you stay on top of the space industry.